AC4VM Weather Reports


Display with metric or nautical units.
time (UTC)temp
F
wind
direction
speed
MPH
gust
MPH
rain 1hr
in
rain 24hr
in
rain mn
in
humidity
%
barometer
mb
20260906124525 75 239 1.0 3.0 0.00 0.00 0.00 93 1011.2
20260906123020 74 216 1.0 3.0 0.00 0.00 0.00 95 1010.9
20260906121521 73 279 1.0 3.0 0.00 0.00 0.00 96 1010.8
20260906120017 72 248 1.0 2.0 0.00 0.00 0.00 97 1010.6
20260906114516 71 248 0.0 1.0 0.00 0.00 0.00 96 1010.5
20260906113015 70 248 0.0 0.0 0.00 0.00 0.00 96 1010.4
20260906111516 70 248 0.0 2.0 0.00 0.00 0.00 96 1010.4
20260906110013 71 65 1.0 2.0 0.00 0.00 0.00 96 1010.2
20260906104512 71 65 0.0 0.0 0.00 0.00 0.00 96 1010.0
20260906103011 71 65 0.0 0.0 0.00 0.00 0.00 96 1010.0
20260906101510 71 65 0.0 0.0 0.00 0.00 0.00 96 1010.0
20260906100008 72 65 0.0 0.0 0.00 0.00 0.00 96 1009.9
20260906094507 72 65 0.0 2.0 0.00 0.00 0.00 96 1009.8
20260906093012 72 65 0.0 2.0 0.00 0.00 0.00 96 1009.7
20260906091505 72 85 0.0 0.0 0.00 0.00 0.00 96 1009.7
20260906090005 72 358 0.0 1.0 0.00 0.00 0.00 95 1009.7
20260906084504 72 356 0.0 1.0 0.00 0.00 0.00 95 1009.7
20260906083004 72 39 0.0 1.0 0.00 0.00 0.00 95 1009.6
20260906081503 72 39 0.0 0.0 0.00 0.00 0.00 95 1009.6
20260906080002 72 39 1.0 3.0 0.00 0.00 0.00 95 1009.7
20260906074504 73 251 1.0 2.0 0.00 0.00 0.00 94 1009.9
20260906073103 73 251 0.0 3.0 0.00 0.00 0.00 94 1010.0
20260906071600 73 263 0.0 2.0 0.00 0.00 0.00 94 1009.9
20260906070058 73 312 0.0 2.0 0.00 0.00 0.00 94 1009.4
20260906064556 73 312 0.0 1.0 0.00 0.00 0.00 93 1009.2
20260906063053 73 300 1.0 3.0 0.00 0.00 0.00 94 1009.6
20260906061552 74 281 0.0 0.0 0.00 0.00 0.00 93 1009.7
20260906060056 74 281 0.0 2.0 0.00 0.00 0.00 93 1009.8
20260906054546 74 277 2.0 3.0 0.00 0.00 0.00 93 1009.9
20260906053039 74 268 1.0 2.0 0.00 0.00 0.00 93 1010.2
20260906051537 73 91 0.0 1.0 0.00 0.00 0.00 93 1010.0
20260906050034 73 280 1.0 2.0 0.00 0.00 0.00 92 1010.2
20260906044534 74 280 0.0 2.0 0.00 0.00 0.00 93 1010.3
20260906043031 74 280 0.0 1.0 0.00 0.00 0.00 92 1010.4
20260906041538 74 280 0.0 0.0 0.00 0.00 0.00 91 1010.6
20260906040022 74 280 1.0 2.0 0.00 0.00 0.00 91 1010.6
20260906034526 74 280 1.0 2.0 0.00 0.00 0.00 91 1010.7
20260906033020 74 280 0.0 4.0 0.00 0.00 0.00 90 1010.4
20260906031520 74 103 0.0 1.0 0.00 0.00 0.00 91 1010.6
20260906030020 75 262 2.0 4.0 0.00 0.00 0.00 89 1010.4
20260906024519 75 52 0.0 4.0 0.00 0.00 0.00 90 1010.3
20260906023020 75 284 1.0 2.0 0.00 0.00 0.00 89 1010.0
20260906021519 76 284 0.0 1.0 0.00 0.00 0.00 88 1009.9
20260906020018 76 284 0.0 2.0 0.00 0.00 0.00 88 1009.8
20260906014523 76 284 0.0 2.0 0.00 0.00 0.00 88 1009.6
20260906013017 76 284 0.0 2.0 0.00 0.00 0.00 87 1009.7
20260906011516 77 284 1.0 3.0 0.00 0.00 0.00 85 1009.5
20260906010015 78 284 0.0 0.0 0.00 0.00 0.00 84 1009.4
20260906004515 78 284 0.0 1.0 0.00 0.00 0.00 83 1009.5
20260906003015 78 284 1.0 2.0 0.00 0.00 0.00 82 1009.3
20260906001514 79 284 0.0 1.0 0.00 0.00 0.00 81 1009.2
20260906000013 80 288 0.0 1.0 0.00 0.00 0.00 80 1009.5
20260905234514 81 288 0.0 2.0 0.00 0.00 0.00 77 1009.6
20260905233012 81 244 0.0 1.0 0.00 0.00 0.00 76 1009.3
20260905231512 82 242 0.0 0.0 0.00 0.00 0.00 75 1009.4
20260905230012 83 242 0.0 1.0 0.00 0.00 0.00 71 1009.2
20260905224517 84 274 2.0 5.0 0.00 0.00 0.00 69 1009.3
20260905223010 84 256 0.0 3.0 0.00 0.00 0.00 69 1009.2
20260905221526 84 243 1.0 4.0 0.00 0.00 0.00 69 1009.2
20260905220009 84 252 3.0 6.0 0.00 0.00 0.00 69 1009.2
20260905214509 84 263 3.0 6.0 0.00 0.00 0.00 69 1009.5
20260905213007 83 239 2.0 7.0 0.00 0.00 0.00 70 1009.8
20260905211507 83 114 3.0 7.0 0.00 0.00 0.00 74 1010.0
20260905210008 83 244 1.0 2.0 0.00 0.00 0.00 74 1009.4
20260905204504 84 310 0.0 3.0 0.00 0.00 0.00 73 1009.6
20260905203003 85 149 0.0 3.0 0.00 0.00 0.00 69 1010.1
20260905201502 86 216 0.0 3.0 0.00 0.00 0.00 64 1010.2
20260905200104 86 305 2.0 5.0 0.00 0.00 0.00 66 1010.3
20260905194559 85 257 1.0 4.0 0.00 0.00 0.00 71 1010.3
20260905193058 83 18 1.0 3.0 0.00 0.00 0.00 72 1010.4
20260905191557 81 96 0.0 2.0 0.00 0.00 0.00 76 1010.7
20260905190112 80 29 1.0 4.0 0.00 0.00 0.00 73 1010.9
20260905184611 79 307 0.0 2.0 0.00 0.00 0.00 79 1011.0
20260905183054 79 312 0.0 7.0 0.00 0.00 0.00 80 1010.9
20260905181553 80 324 2.0 5.0 0.00 0.00 0.00 81 1011.1
20260905180052 82 347 2.0 8.0 0.00 0.00 0.00 73 1011.7
20260905174557 85 27 5.0 13.0 0.00 0.00 0.00 68 1011.3
20260905173051 87 26 7.0 16.0 0.00 0.00 0.00 62 1011.5
20260905171551 92 345 2.0 6.0 0.00 0.00 0.00 60 1011.1
20260905170048 91 238 1.0 4.0 0.00 0.00 0.00 62 1010.9
20260905164549 89 264 1.0 5.0 0.00 0.00 0.00 64 1011.7
20260905163043 89 85 3.0 7.0 0.00 0.00 0.00 64 1011.7
20260905161541 88 85 4.0 7.0 0.00 0.00 0.00 65 1011.8
20260905160040 87 79 2.0 4.0 0.00 0.00 0.00 69 1011.8
20260905154537 85 74 0.0 4.0 0.00 0.00 0.00 75 1011.8
20260905153036 85 224 0.0 2.0 0.00 0.00 0.00 76 1012.0
20260905151536 85 242 1.0 2.0 0.00 0.00 0.00 77 1012.0
20260905150035 84 259 3.0 6.0 0.00 0.00 0.00 74 1012.2
20260905144540 84 258 1.0 4.0 0.00 0.00 0.00 76 1012.1
20260905143032 83 305 1.0 3.0 0.00 0.00 0.00 77 1012.4
20260905141528 80 97 0.0 2.0 0.00 0.00 0.00 82 1012.3
20260905140023 79 97 1.0 2.0 0.00 0.00 0.00 83 1012.3
20260905134520 79 342 0.0 1.0 0.00 0.00 0.00 85 1012.4
20260905133019 79 36 0.0 2.0 0.00 0.00 0.00 86 1012.7
20260905131537 77 50 0.0 2.0 0.00 0.00 0.00 86 1012.7
20260905130015 77 50 0.0 3.0 0.00 0.00 0.00 87 1012.8